| time (UTC) | temp C | wind direction | speed KPH | gust KPH | rain 1hr cm | rain 24hr cm | rain mn cm | humidity % | barometer mb |
| 20260504014811 | 5 | 3.2 | 0.0 | 0.00 | 0.00 | 0.00 | 76 | 1019.0 | |
| 20260504013316 | 5 | 3.2 | 0.0 | 0.00 | 0.00 | 0.00 | 76 | 1019.0 | |
| 20260504011926 | 5 | 150 | 4.8 | 0.0 | 0.00 | 0.00 | 0.00 | 76 | 1019.0 |
| 20260504010311 | 5 | 150 | 4.8 | 0.0 | 0.00 | 0.00 | 0.00 | 76 | 1019.0 |
| 20260504004927 | 7 | 350 | 4.8 | 0.0 | 0.00 | 0.00 | 0.00 | 66 | 1019.0 |
| 20260504003311 | 7 | 350 | 4.8 | 0.0 | 0.00 | 0.00 | 0.00 | 66 | 1019.0 |
| 20260504001811 | 6 | 1.6 | 0.0 | 0.00 | 0.00 | 0.00 | 71 | 1018.0 | |
| 20260504000311 | 6 | 1.6 | 0.0 | 0.00 | 0.00 | 0.00 | 71 | 1018.0 | |
| 20260503234850 | 7 | 1.6 | 0.0 | 0.00 | 0.00 | 0.00 | 62 | 1019.0 | |
| 20260503233311 | 7 | 1.6 | 0.0 | 0.00 | 0.00 | 0.00 | 62 | 1019.0 | |
| 20260503231815 | 8 | 1.6 | 0.0 | 0.00 | 0.00 | 0.00 | 62 | 1019.0 | |
| 20260503230323 | 8 | 1.6 | 0.0 | 0.00 | 0.00 | 0.00 | 62 | 1019.0 | |
| 20260503224811 | 8 | 260 | 9.7 | 0.0 | 0.00 | 0.00 | 0.00 | 58 | 1019.0 |
| 20260503223323 | 8 | 260 | 9.7 | 0.0 | 0.00 | 0.00 | 0.00 | 58 | 1019.0 |
| 20260503221828 | 10 | 160 | 4.8 | 0.0 | 0.00 | 0.00 | 0.00 | 54 | 1019.0 |
| 20260503220353 | 10 | 160 | 4.8 | 0.0 | 0.00 | 0.00 | 0.00 | 54 | 1019.0 |
| 20260503214818 | 10 | 120 | 4.8 | 0.0 | 0.00 | 0.00 | 0.00 | 54 | 1019.0 |
| 20260503213311 | 10 | 120 | 4.8 | 0.0 | 0.00 | 0.00 | 0.00 | 54 | 1019.0 |
| 20260503211811 | 10 | 70 | 3.2 | 0.0 | 0.00 | 0.00 | 0.00 | 50 | 1019.0 |
| 20260503210311 | 10 | 70 | 3.2 | 0.0 | 0.00 | 0.00 | 0.00 | 50 | 1019.0 |
| 20260503204818 | 10 | 100 | 4.8 | 0.0 | 0.00 | 0.00 | 0.00 | 47 | 1019.0 |
| 20260503203426 | 10 | 100 | 4.8 | 0.0 | 0.00 | 0.00 | 0.00 | 47 | 1019.0 |
| 20260503201811 | 8 | 3.2 | 0.0 | 0.00 | 0.00 | 0.00 | 58 | 1019.0 | |
| 20260503200320 | 8 | 3.2 | 0.0 | 0.00 | 0.00 | 0.00 | 58 | 1019.0 | |
| 20260503194836 | 8 | 250 | 12.9 | 0.0 | 0.00 | 0.00 | 0.00 | 50 | 1019.0 |
| 20260503193427 | 8 | 250 | 12.9 | 0.0 | 0.00 | 0.00 | 0.00 | 50 | 1019.0 |
| 20260503191811 | 8 | 250 | 12.9 | 0.0 | 0.00 | 0.00 | 0.00 | 54 | 1019.0 |
| 20260503190311 | 8 | 250 | 12.9 | 0.0 | 0.00 | 0.00 | 0.00 | 54 | 1019.0 |
| 20260503184926 | 8 | 250 | 12.9 | 0.0 | 0.00 | 0.00 | 0.00 | 54 | 1019.0 |
| 20260503183310 | 8 | 250 | 12.9 | 0.0 | 0.00 | 0.00 | 0.00 | 54 | 1019.0 |
| 20260503181811 | 8 | 260 | 11.3 | 0.0 | 0.00 | 0.00 | 0.00 | 58 | 1019.0 |
| 20260503180310 | 8 | 260 | 11.3 | 0.0 | 0.00 | 0.00 | 0.00 | 58 | 1019.0 |
| 20260503174831 | 8 | 240 | 11.3 | 0.0 | 0.00 | 0.00 | 0.00 | 58 | 1019.0 |
| 20260503173335 | 10 | 240 | 11.3 | 0.0 | 0.00 | 0.00 | 0.00 | 54 | 1019.0 |
| 20260503171811 | 13 | 340 | 8.0 | 0.0 | 0.00 | 0.00 | 0.00 | 31 | 1019.0 |
| 20260503170311 | 13 | 340 | 8.0 | 0.0 | 0.00 | 0.00 | 0.00 | 31 | 1019.0 |
| 20260503150311 | 16 | 3.2 | 0.0 | 0.00 | 0.00 | 0.00 | 20 | 1019.0 | |
| 20260503130311 | 16 | 10 | 8.0 | 0.0 | 0.00 | 0.00 | 0.00 | 22 | 1020.0 |
| 20260503110332 | 13 | 330 | 11.3 | 0.0 | 0.00 | 0.00 | 0.00 | 33 | 1021.0 |
| 20260503090332 | 12 | 30 | 9.7 | 0.0 | 0.00 | 0.00 | 0.00 | 38 | 1023.0 |
| 20260503080321 | 11 | 90 | 9.7 | 0.0 | 0.00 | 0.00 | 0.00 | 41 | 1023.0 |
| 20260503071813 | 10 | 110 | 8.0 | 0.0 | 0.00 | 0.00 | 0.00 | 54 | 1023.0 |
| 20260503070312 | 10 | 110 | 8.0 | 0.0 | 0.00 | 0.00 | 0.00 | 54 | 1023.0 |
| 20260503060311 | 7 | 110 | 8.0 | 0.0 | 0.00 | 0.00 | 0.00 | 71 | 1023.0 |
| 20260503054811 | 6 | 120 | 8.0 | 0.0 | 0.00 | 0.00 | 0.00 | 71 | 1023.0 |
| 20260503053311 | 6 | 120 | 8.0 | 0.0 | 0.00 | 0.00 | 0.00 | 71 | 1023.0 |
| 20260503051811 | 5 | 3.2 | 0.0 | 0.00 | 0.00 | 0.00 | 76 | 1023.0 | |
| 20260503050311 | 5 | 3.2 | 0.0 | 0.00 | 0.00 | 0.00 | 76 | 1023.0 | |
| 20260503044811 | 3 | 3.2 | 0.0 | 0.00 | 0.00 | 0.00 | 81 | 1022.0 | |
| 20260503043312 | 3 | 3.2 | 0.0 | 0.00 | 0.00 | 0.00 | 81 | 1022.0 | |
| 20260503041811 | 2 | 1.6 | 0.0 | 0.00 | 0.00 | 0.00 | 87 | 1022.0 | |
| 20260503040334 | 2 | 1.6 | 0.0 | 0.00 | 0.00 | 0.00 | 87 | 1022.0 | |
| 20260503034813 | -1 | 240 | 4.8 | 0.0 | 0.00 | 0.00 | 0.00 | 93 | 1022.0 |
| 20260503033311 | -1 | 240 | 4.8 | 0.0 | 0.00 | 0.00 | 0.00 | 93 | 1022.0 |
| 20260503031811 | 2 | 1.6 | 0.0 | 0.00 | 0.00 | 0.00 | 87 | 1022.0 | |
| 20260503030311 | 2 | 1.6 | 0.0 | 0.00 | 0.00 | 0.00 | 87 | 1022.0 | |
| 20260503024826 | 2 | 1.6 | 0.0 | 0.00 | 0.00 | 0.00 | 81 | 1022.0 | |
| 20260503023311 | 2 | 1.6 | 0.0 | 0.00 | 0.00 | 0.00 | 81 | 1022.0 | |
| 20260503021811 | 2 | 120 | 4.8 | 0.0 | 0.00 | 0.00 | 0.00 | 87 | 1021.0 |
| 20260503020311 | 2 | 120 | 4.8 | 0.0 | 0.00 | 0.00 | 0.00 | 87 | 1021.0 |